Date String (YYYY-MM-DD hh:mm:ss) UTC,Instrument flags,Ambient pressure (hPa),Sample flow (lpm),Bypass flow (lpm),Sample temperature (°C),Ambient temperature (°C),ASC tube jacket temperature (°C),LED temperature (°C),Box temperature (°C),Sample RH (%),Span deviation,Mass concentration (μg/m³),Mass concentration (μg/m³),Mass concentration (μg/m³)
DateTimeUTC,F1_M11,P_M11,Q1_M11,Q2_M11,T1_M11,T2_M11,T3_M11,T4_M11,T5_M11,U1_M11,ZSPAN_M11,X0_M11,X2_M11,X1_M11
2022-07-10 14:00:00,,0830.9,5.00,0.00,29.7,27.9,00.0,38.5,31.5,18.4,0000.0,0010.71,0003.29,0002.81
2022-07-10 14:01:00,,0830.9,4.99,0.00,29.7,28.0,00.0,38.5,31.5,18.9,0000.0,0010.91,0003.33,0002.82
2022-07-10 14:02:00,,0830.9,5.00,0.00,29.7,28.2,00.0,38.5,31.6,19.0,0000.0,0010.18,0003.35,0002.83
2022-07-10 14:03:00,,0830.9,5.00,0.00,29.8,28.3,00.0,38.5,31.6,18.7,0000.0,0010.03,0003.35,0002.83
2022-07-10 14:04:00,,0830.9,5.02,0.00,29.8,28.4,00.0,38.5,31.7,18.4,0000.0,0010.95,0003.36,0002.84
2022-07-10 14:05:00,,0830.9,4.99,0.00,29.8,28.6,00.0,38.5,31.7,18.8,0000.0,0011.40,0003.39,0002.84
2022-07-10 14:06:00,,0830.9,5.00,0.00,29.8,28.6,00.0,38.5,31.7,18.4,0000.0,0011.00,0003.40,0002.83
2022-07-10 14:07:00,,0830.9,5.01,0.00,29.8,28.1,00.0,38.5,31.7,17.1,0000.0,0010.72,0003.39,0002.83
2022-07-10 14:08:00,,0830.9,5.00,0.00,29.8,27.5,00.0,38.4,31.6,16.8,0000.0,0010.71,0003.38,0002.81
2022-07-10 14:09:00,,0831.0,5.00,0.00,29.7,27.5,00.0,38.4,31.5,17.3,0000.0,0010.51,0003.39,0002.80
2022-07-10 14:10:00,,0831.0,5.00,0.00,29.7,27.6,00.0,38.4,31.5,17.1,0000.0,0009.86,0003.40,0002.81
2022-07-10 14:11:00,,0831.0,5.00,0.00,29.7,27.8,00.0,38.4,31.5,16.9,0000.0,0009.16,0003.39,0002.79
2022-07-10 14:12:00,,0831.0,5.00,0.00,29.7,27.9,00.0,38.4,31.5,16.8,0000.0,0008.51,0003.36,0002.76
2022-07-10 14:13:00,,0831.0,5.00,0.00,29.7,28.1,00.0,38.4,31.5,16.7,0000.0,0007.97,0003.34,0002.73
2022-07-10 14:14:00,,0831.0,5.01,0.00,29.7,28.2,00.0,38.5,31.6,21.7,0000.0,0007.95,0003.36,0002.72
2022-07-10 14:15:00,,0831.0,5.00,0.00,29.7,28.4,00.0,38.5,31.6,21.7,0000.0,0006.98,0003.39,0002.73
2022-07-10 14:16:00,,0831.0,5.00,0.00,29.8,28.5,00.0,38.5,31.7,20.2,0000.0,0006.61,0003.34,0002.72
2022-07-10 14:17:00,,0831.0,4.99,0.00,29.8,28.6,00.0,38.5,31.7,20.4,0000.0,0006.52,0003.33,0002.74
2022-07-10 14:18:00,,0831.0,5.01,0.00,29.8,28.3,00.0,38.5,31.7,20.2,0000.0,0006.57,0003.36,0002.75
2022-07-10 14:19:00,,0831.0,5.01,0.00,29.8,27.6,00.0,38.4,31.6,21.3,0000.0,0006.61,0003.38,0002.77
2022-07-10 14:20:00,,0831.0,5.00,0.00,29.7,27.5,00.0,38.4,31.5,21.6,0000.0,0006.73,0003.39,0002.80
2022-07-10 14:21:00,,0831.0,5.00,0.00,29.7,27.6,00.0,38.4,31.5,22.2,0000.0,0006.95,0003.46,0002.82
2022-07-10 14:22:00,,0831.0,4.99,0.00,29.7,27.8,00.0,38.4,31.4,22.6,0000.0,0007.99,0003.52,0002.84
2022-07-10 14:23:00,,0831.0,5.01,0.00,29.7,27.9,00.0,38.4,31.5,22.1,0000.0,0008.70,0003.57,0002.87
2022-07-10 14:24:00,,0831.1,5.00,0.00,29.7,28.1,00.0,38.4,31.5,22.4,0000.0,0008.94,0003.62,0002.91
2022-07-10 14:25:00,,0831.1,4.99,0.00,29.7,28.3,00.0,38.5,31.6,22.2,0000.0,0009.19,0003.61,0002.94
2022-07-10 14:26:00,,0831.1,5.00,0.00,29.7,28.4,00.0,38.5,31.6,22.0,0000.0,0009.55,0003.61,0002.95
2022-07-10 14:27:00,,0831.1,5.00,0.00,29.8,28.5,00.0,38.5,31.7,20.0,0000.0,0010.92,0003.67,0002.97
2022-07-10 14:28:00,,0831.1,4.99,0.00,29.8,28.3,00.0,38.5,31.7,20.8,0000.0,0011.58,0003.68,0002.99
2022-07-10 14:29:00,,0831.1,5.00,0.00,29.7,27.8,00.0,38.4,31.6,18.5,0000.0,0011.68,0003.67,0002.99
2022-07-10 14:30:00,,0831.0,5.00,0.00,29.7,27.6,00.0,38.4,31.5,18.9,0000.0,0012.40,0003.67,0002.99
2022-07-10 14:31:00,,0831.0,4.98,0.00,29.7,27.7,00.0,38.4,31.5,18.7,0000.0,0012.60,0003.69,0002.97
2022-07-10 14:32:00,,0831.0,5.01,0.00,29.7,27.8,00.0,38.4,31.4,17.8,0000.0,0012.33,0003.64,0002.95
2022-07-10 14:33:00,,0831.0,5.01,0.00,29.7,27.9,00.0,38.4,31.4,19.8,0000.0,0011.62,0003.60,0002.93
2022-07-10 14:34:00,,0831.0,5.00,0.00,29.7,28.1,00.0,38.4,31.5,21.1,0000.0,0011.21,0003.58,0002.94
2022-07-10 14:35:00,,0831.0,5.00,0.00,29.7,28.2,00.0,38.4,31.5,20.4,0000.0,0011.05,0003.59,0002.93
2022-07-10 14:36:00,,0831.0,5.00,0.00,29.7,28.4,00.0,38.4,31.6,20.3,0000.0,0011.46,0003.61,0002.93
2022-07-10 14:37:00,,0831.0,4.99,0.00,29.7,28.5,00.0,38.5,31.7,18.8,0000.0,0011.22,0003.59,0002.94
2022-07-10 14:38:00,,0831.0,5.01,0.00,29.8,28.3,00.0,38.4,31.7,17.4,0000.0,0009.79,0003.58,0002.95
2022-07-10 14:39:00,,0831.0,5.01,0.00,29.7,27.6,00.0,38.4,31.5,17.5,0000.0,0008.91,0003.57,0002.93
2022-07-10 14:40:00,,0831.0,5.01,0.00,29.7,27.4,00.0,38.3,31.5,18.2,0000.0,0008.81,0003.57,0002.92
2022-07-10 14:41:00,,0831.0,5.00,0.00,29.6,27.4,00.0,38.4,31.4,18.1,0000.0,0008.26,0003.58,0002.93
2022-07-10 14:42:00,,0831.0,5.00,0.00,29.6,27.5,00.0,38.3,31.4,17.4,0000.0,0007.89,0003.57,0002.94
2022-07-10 14:43:00,,0831.1,5.00,0.00,29.6,27.7,00.0,38.4,31.4,17.6,0000.0,0007.87,0003.56,0002.95
2022-07-10 14:44:00,,0831.0,5.01,0.00,29.6,27.9,00.0,38.4,31.4,18.0,0000.0,0007.95,0003.58,0002.96
2022-07-10 14:45:00,,0831.0,5.00,0.00,29.6,28.1,00.0,38.4,31.4,18.4,0000.0,0007.66,0003.56,0002.96
2022-07-10 14:46:00,,0831.0,5.01,0.00,29.6,28.2,00.0,38.4,31.5,18.9,0000.0,0008.64,0003.57,0002.97
2022-07-10 14:47:00,,0831.0,4.99,0.00,29.7,28.4,00.0,38.4,31.6,19.1,0000.0,0008.57,0003.57,0002.97
2022-07-10 14:48:00,,0831.0,5.00,0.00,29.7,28.3,00.0,38.4,31.6,18.5,0000.0,0009.32,0003.58,0002.97
2022-07-10 14:49:00,,0831.1,5.00,0.00,29.6,27.6,00.0,38.3,31.4,19.0,0000.0,0009.52,0003.55,0002.95
2022-07-10 14:50:00,,0831.1,5.00,0.00,29.6,27.2,00.0,38.3,31.4,18.6,0000.0,0010.02,0003.56,0002.95
2022-07-10 14:51:00,,0831.0,4.99,0.00,29.6,27.3,00.0,38.3,31.3,17.8,0000.0,0010.09,0003.56,0002.95
2022-07-10 14:52:00,,0831.1,5.00,0.00,29.5,27.4,00.0,38.3,31.3,18.1,0000.0,0010.20,0003.57,0002.94
2022-07-10 14:53:00,,0831.0,4.99,0.00,29.5,27.6,00.0,38.3,31.3,17.9,0000.0,0010.44,0003.57,0002.94
2022-07-10 14:54:00,,0831.0,5.00,0.00,29.5,27.8,00.0,38.3,31.3,17.7,0000.0,0010.72,0003.57,0002.92
2022-07-10 14:55:00,,0831.0,5.00,0.00,29.5,27.9,00.0,38.3,31.4,17.5,0000.0,0011.19,0003.56,0002.92
2022-07-10 14:56:00,,0831.1,5.00,0.00,29.6,28.1,00.0,38.3,31.4,18.9,0000.0,0013.02,0003.55,0002.91
2022-07-10 14:57:00,,0831.1,5.00,0.00,29.6,28.3,00.0,38.3,31.5,21.1,0000.0,0013.73,0003.53,0002.90
2022-07-10 14:58:00,,0831.1,5.00,0.00,29.6,28.4,00.0,38.3,31.5,21.0,0000.0,0013.62,0003.53,0002.91
2022-07-10 14:59:00,,0831.1,5.01,0.00,29.7,28.4,00.0,38.3,31.6,21.3,0000.0,0013.68,0003.52,0002.90
